User: anonymous   Login
Location: Charlottesville
(38.0290°N, 78.4770°W)
Time: 02:37:54
(UTC-05:00)
Language:

XW-2F - Orbit

View from above orbital plane
View from above orbital plane
View from above satellite
View from above satellite

Ground track
Ground track

The orbit data is extracted from the following two-line orbital elements,

1 40910U 15049M   18325.24894766  .00000885  00000-0  48290-4 0  9996
2 40910  97.4608 327.2020 0014344 191.5489 224.0029 15.16864275175264
Epoch (UTC): 21 November 2018 05:58:29
Eccentricity: 0.0014344
inclination: 97.4608°
perigee height: 505 km
apogee height: 525 km
right ascension of ascending node: 327.2020°
argument of perigee: 191.5489°
revolutions per day: 15.16864275
mean anomaly at epoch: 224.0029°
orbit number at epoch: 17526

The dashed part of the orbit path shows where the satellite is in the earth's shadow,  

DLR